GFSMA_925_thetae_000.txt.gz
Theta_e
349 350 347 348 349 348 349 349 348 348 347 346 345 347 348 347 344 342 346 347 346 346 344 349 348 348 347 346 345 343 345 344 343 343 343 343 341 335 335 335 337 340 338
350 350 349 348 345 346 348 347 348 346 344 345 346 345 345 346 347 344 342 344 345 346 344 343 345 348 348 348 346 346 345 346 342 342 340 337 336 338 337 338 342 341 336
349 351 350 349 346 345 344 344 344 342 342 342 343 344 344 344 344 345 344 344 345 345 346 344 342 343 346 350 348 346 344 344 342 338 336 336 338 341 342 341 339 336 338
348 348 350 348 346 346 346 345 344 345 344 343 342 342 342 341 343 344 344 345 345 345 346 346 344 343 343 350 350 347 344 342 344 344 341 338 338 332 334 339 339 334 335
348 349 348 347 347 346 347 347 345 344 342 342 341 342 343 343 341 341 344 345 346 346 345 346 346 345 344 349 349 349 348 344 336 339 343 343 339 336 336 333 332 334 335
350 351 347 346 347 347 345 345 345 344 343 343 341 342 341 339 339 339 339 340 343 345 346 345 346 345 346 345 344 348 349 347 344 341 345 342 341 337 339 338 338 340 338
349 347 345 343 345 344 344 343 342 344 344 342 343 342 340 338 338 340 340 341 341 342 344 345 345 345 345 346 346 344 347 348 347 341 341 346 341 342 338 337 340 340 336
348 344 343 344 344 342 343 342 341 342 342 342 343 340 334 337 339 335 337 339 342 344 345 344 343 343 343 344 344 345 346 343 343 344 342 339 342 343 343 339 338 337 333
347 336 338 341 340 342 340 340 341 342 342 342 341 340 336 335 336 337 336 337 337 337 340 340 341 342 342 344 344 343 342 345 344 344 347 348 345 340 336 336 337 338 337
334 335 339 341 342 340 338 339 340 340 340 340 340 340 339 338 335 335 336 333 331 331 331 332 334 339 341 343 343 344 343 342 345 345 345 345 348 346 343 339 338 339 338
336 336 339 342 340 334 337 337 337 338 339 339 338 338 337 335 336 333 331 332 332 329 332 332 331 333 334 338 339 337 339 342 342 344 345 344 344 348 346 345 340 338 337
333 337 340 335 332 333 335 336 337 336 336 337 337 335 333 333 333 333 329 331 332 333 331 332 329 331 333 336 338 340 341 338 343 344 344 345 343 344 345 346 345 344 339
338 337 333 331 330 332 334 336 335 334 334 336 332 332 333 332 333 332 332 331 330 330 331 325 326 327 326 330 333 336 341 342 342 342 344 344 346 347 345 346 346 348 348
334 333 333 332 331 334 336 336 336 333 333 336 333 333 334 332 331 330 330 329 325 325 325 323 325 322 323 324 327 331 336 339 341 342 339 339 339 345 347 347 346 346 344
335 334 333 333 332 334 333 334 335 335 334 334 333 334 334 332 330 323 322 323 325 320 319 322 322 320 319 319 322 330 331 334 338 340 339 339 338 335 345 345 346 347 344
333 333 334 335 335 333 332 332 334 335 333 333 334 333 333 332 331 326 322 321 320 323 320 321 320 320 319 320 321 325 333 334 334 337 338 337 336 340 345 346 346 346 346
333 335 336 335 333 332 333 334 334 335 334 333 334 332 332 331 330 329 325 321 320 321 322 321 320 320 321 320 320 323 324 331 334 335 338 338 337 336 342 343 344 346 347
334 333 332 331 330 331 333 333 333 334 335 333 333 331 330 330 331 330 328 323 321 321 323 321 321 321 321 320 320 322 324 327 335 336 336 338 338 337 338 338 339 343 346
335 333 332 331 333 333 331 330 331 333 333 332 332 331 330 331 331 330 329 327 323 322 323 322 322 321 320 319 320 321 323 325 328 334 337 338 338 337 339 339 339 339 343
335 334 332 333 334 331 330 331 333 334 333 331 329 329 329 332 331 329 329 328 327 325 324 323 321 321 320 320 321 322 322 323 326 331 338 338 337 338 336 336 335 338 343
335 334 333 333 333 331 330 333 332 330 328 327 326 327 327 327 328 328 328 327 326 325 324 323 321 320 320 320 321 321 322 323 324 326 331 339 340 339 339 339 334 339 343
336 334 333 333 333 329 331 331 330 329 328 326 324 324 325 325 326 326 326 326 326 325 324 323 321 321 320 320 321 321 322 322 324 325 331 339 340 339 338 339 338 336 340
334 335 333 334 330 330 330 331 330 328 327 326 325 325 325 323 325 326 326 325 325 323 323 321 321 321 321 321 320 321 321 322 322 324 326 332 341 341 339 340 338 335 337
336 336 336 334 332 332 331 332 330 328 327 325 324 323 321 324 324 326 325 323 322 320 320 318 318 319 319 319 319 320 321 321 322 323 326 331 338 342 342 342 342 343 346
336 337 336 326 332 332 327 330 329 327 323 324 320 323 322 321 323 323 322 320 320 320 320 318 317 318 318 318 319 320 322 322 322 322 325 329 337 341 342 343 343 341 341
338 337 335 333 333 329 330 328 327 322 324 323 323 321 320 321 322 320 319 318 318 319 318 319 317 318 318 318 318 320 321 322 323 325 326 333 339 341 340 343 344 344 344

GFSMA_925_thetae_003.txt.gz
Theta_e
349 347 347 345 344 346 347 346 346 346 345 343 344 345 344 344 345 345 342 343 347 346 345 347 351 348 347 346 347 345 345 343 343 344 345 342 341 340 338 337 340 340 337
350 349 347 347 346 344 345 346 346 344 341 340 341 341 341 342 344 345 345 341 344 343 345 344 346 349 348 347 346 345 345 345 343 343 342 340 341 340 335 335 338 340 341
351 350 350 346 346 345 344 344 343 342 343 342 340 339 339 338 339 341 344 343 343 344 343 345 344 344 347 348 348 346 345 343 343 344 339 336 335 334 336 336 337 340 340
348 347 347 347 346 346 345 345 345 343 341 340 340 338 338 339 339 339 342 343 344 344 345 343 345 344 344 349 349 348 345 344 343 342 341 336 334 333 335 339 340 341 339
348 348 347 346 345 346 346 345 344 343 341 340 339 338 338 338 338 338 337 338 341 343 345 345 345 345 345 344 350 348 347 346 344 343 344 343 341 337 337 334 331 333 335
348 347 349 347 346 346 344 344 344 343 342 341 341 339 337 338 338 338 337 339 339 340 340 343 346 345 344 344 343 345 347 348 348 346 340 338 342 343 342 337 335 336 333
350 348 347 343 343 344 344 343 342 342 342 342 341 339 337 337 336 334 336 338 339 342 343 342 344 343 344 344 343 343 344 345 347 348 345 341 337 342 343 340 336 338 337
348 346 343 342 343 343 340 341 341 341 341 342 340 337 333 335 337 336 335 336 336 332 339 341 342 342 343 342 343 343 343 343 343 345 348 347 344 340 342 342 340 339 337
348 345 338 339 341 339 340 339 341 341 341 341 340 339 333 333 334 336 335 332 328 327 328 331 333 335 338 340 341 342 341 341 341 342 343 344 345 346 342 338 337 339 340
343 335 337 339 340 341 338 338 340 340 339 339 339 339 338 338 333 332 334 331 326 324 328 327 330 331 333 335 337 339 342 343 342 341 341 344 344 344 347 346 342 336 333
335 335 337 339 341 338 335 336 336 337 337 338 337 337 336 335 335 330 328 329 325 324 322 325 325 328 328 328 330 334 338 340 339 338 340 341 343 344 345 347 348 344 339
334 333 335 340 336 334 335 335 336 334 336 337 337 334 331 331 331 331 327 327 329 326 321 320 321 319 322 320 322 326 331 338 340 342 340 336 340 342 344 344 346 348 347
334 335 338 332 329 332 333 335 335 333 333 335 332 331 333 333 332 332 330 328 326 325 323 320 320 318 318 318 318 319 322 327 332 339 342 342 340 342 342 343 345 345 347
331 334 332 330 329 331 334 335 334 334 333 334 334 332 334 334 332 329 328 326 319 321 322 319 320 319 318 319 320 320 320 321 327 330 333 339 342 341 342 343 344 345 347
331 332 332 332 331 331 333 332 333 333 334 333 333 333 334 334 332 328 322 322 320 316 315 319 320 318 318 318 320 320 320 321 322 329 333 334 337 341 340 339 340 341 344
330 332 332 332 332 332 332 331 330 333 333 333 333 333 334 333 332 329 325 323 321 320 319 320 320 320 319 319 320 320 320 320 321 323 329 332 333 336 339 338 339 337 343
332 331 332 334 334 333 330 330 332 333 333 334 334 333 332 331 332 330 328 326 324 321 321 321 322 323 322 320 320 320 320 320 321 322 324 331 334 335 337 339 336 337 343
328 330 332 332 332 330 328 330 331 331 332 332 333 332 331 331 331 330 329 328 327 325 322 321 322 322 323 321 320 320 319 320 321 322 323 326 332 335 336 338 337 337 342
332 333 331 330 328 329 330 330 330 330 330 332 331 332 330 330 330 329 329 328 328 327 325 323 322 322 322 321 320 319 319 320 321 322 323 325 330 334 336 337 338 337 336
334 333 331 328 329 330 330 329 330 330 332 332 329 329 328 329 329 327 327 327 328 327 326 324 322 322 321 320 319 319 319 320 320 321 322 323 325 328 336 338 337 337 337
333 331 330 330 330 330 331 329 329 331 330 328 326 324 324 325 325 325 324 325 326 326 325 323 322 322 320 319 319 319 319 320 319 320 322 323 325 328 334 339 339 337 338
333 331 331 332 331 331 331 328 329 329 328 327 326 324 323 324 324 324 325 325 326 326 325 322 322 321 320 318 319 320 319 319 320 320 322 323 326 332 336 341 340 338 337
332 332 332 333 331 331 331 328 329 329 328 327 325 324 321 321 321 322 323 325 325 324 323 322 322 320 319 318 319 319 318 318 319 320 321 322 323 325 328 340 341 340 338
334 333 332 332 333 332 331 331 329 330 329 328 325 323 320 322 321 321 323 323 322 320 319 319 319 319 318 317 318 318 318 318 319 320 320 322 322 325 329 336 342 342 338
335 334 333 333 335 332 330 331 328 329 327 326 323 322 323 321 320 323 322 320 319 319 318 317 318 319 319 319 318 318 318 319 319 319 321 322 322 323 327 335 341 342 341
336 335 335 335 334 332 332 329 328 326 326 323 323 322 320 319 319 321 319 317 316 316 315 316 316 318 318 318 317 318 318 318 318 319 321 322 322 326 332 335 341 342 341

GFSMA_925_thetae_006.txt.gz
Theta_e
347 347 346 345 344 344 346 346 345 346 344 340 340 341 342 341 342 345 345 342 343 347 346 345 345 347 346 344 344 345 343 343 343 343 343 342 341 338 337 339 339 340 340
348 348 347 347 346 346 343 344 345 343 342 342 340 339 339 339 339 341 344 344 341 343 343 343 344 345 348 346 345 346 343 344 342 343 342 343 341 339 339 340 336 335 336
349 348 348 348 346 346 345 344 344 343 343 340 339 336 334 336 338 336 339 342 343 343 343 342 343 344 344 347 346 345 344 342 344 342 341 339 340 339 339 337 335 336 340
350 350 347 345 346 345 345 345 344 342 341 339 338 338 337 335 336 338 337 338 340 343 344 344 343 343 344 344 346 346 345 343 342 341 343 345 338 335 335 334 338 339 339
350 348 347 347 346 345 346 345 343 342 339 339 339 338 336 337 336 336 337 337 337 337 340 343 344 344 343 346 346 344 345 346 345 344 342 342 341 339 335 333 333 335 336
349 347 347 347 347 345 344 342 342 341 341 341 340 337 336 336 335 333 337 339 340 341 340 339 341 344 345 344 343 343 343 343 345 345 344 342 341 343 343 341 337 336 332
349 348 347 346 343 343 342 342 341 341 340 341 340 337 336 336 335 334 335 335 334 334 341 343 343 343 343 343 343 343 342 342 343 343 345 345 344 340 336 341 342 341 336
349 348 344 342 342 342 341 339 340 340 340 340 339 335 337 335 336 335 334 333 325 326 329 333 335 337 339 341 342 342 342 342 342 342 343 343 344 344 343 337 340 343 340
349 347 344 337 337 338 338 338 338 340 341 340 339 338 336 337 334 335 335 329 321 324 324 327 329 330 332 334 336 337 339 341 342 341 341 341 343 343 344 345 343 340 340
348 344 334 336 337 338 339 336 339 340 340 338 338 338 337 337 336 336 330 327 321 320 322 322 323 326 327 326 327 330 333 337 339 340 342 342 341 341 343 343 343 345 344
348 335 335 336 337 340 338 336 335 337 337 337 336 335 335 333 334 331 332 329 322 319 319 319 320 320 318 318 318 319 322 326 333 338 340 341 340 340 341 343 344 343 347
337 334 335 336 338 339 334 334 335 334 335 336 336 333 331 329 330 331 331 328 328 321 318 318 318 318 317 318 320 320 319 318 320 325 330 338 341 341 341 340 344 345 347
335 333 333 336 337 331 333 334 334 334 333 334 334 330 331 332 332 331 330 328 328 323 320 319 318 318 317 317 318 320 319 319 320 320 323 328 334 339 342 342 342 343 345
335 332 336 335 329 328 332 335 334 334 333 332 334 333 332 332 333 332 328 326 323 321 320 319 319 319 319 317 317 319 319 319 319 318 320 322 328 332 337 340 341 343 343
334 333 333 331 330 329 331 333 331 332 333 334 333 333 333 333 334 332 329 324 321 323 321 320 319 320 321 323 319 319 318 318 318 319 319 320 322 329 333 335 339 342 341
331 332 331 331 331 330 330 332 331 329 331 332 333 333 333 333 333 333 330 326 323 321 323 321 321 322 322 323 321 319 319 318 318 318 318 319 320 322 328 332 334 337 341
332 328 331 331 331 332 332 331 329 330 332 332 332 333 333 333 332 332 331 328 326 323 321 324 322 324 324 323 322 319 319 318 318 317 317 318 318 320 323 328 333 334 336
334 330 331 331 332 334 333 330 328 330 330 331 331 332 332 331 331 331 331 330 328 327 323 324 324 323 324 324 323 321 320 318 318 317 318 319 319 320 321 324 330 335 335
329 330 329 330 331 331 329 328 329 329 329 330 330 331 330 331 329 329 328 329 329 328 326 323 324 324 323 323 322 321 321 318 318 318 319 319 319 320 321 322 325 332 335
327 328 331 331 330 328 328 329 329 329 329 329 331 331 328 327 326 327 327 326 326 326 325 324 324 324 323 323 322 320 319 318 319 319 318 318 318 319 320 321 323 327 334
333 333 332 332 330 328 329 330 330 329 329 330 329 327 326 324 323 323 324 324 325 325 325 324 324 323 323 323 322 321 319 319 319 318 318 318 319 320 321 323 327 327 332
337 335 334 332 330 328 329 330 330 330 329 329 328 326 325 324 322 321 324 323 323 324 325 324 324 323 322 322 320 319 319 319 321 318 318 318 318 320 321 322 322 330 332
338 335 334 333 331 330 330 330 331 329 330 329 328 327 326 324 320 320 320 321 323 324 323 322 322 321 321 320 319 319 318 318 319 318 318 318 318 319 320 322 322 324 330
335 334 333 333 331 331 332 331 331 331 329 329 329 328 325 323 321 322 320 321 322 321 320 318 317 316 316 317 318 318 318 318 318 318 318 319 319 319 320 322 322 323 329
334 333 333 333 332 331 332 333 330 331 328 327 328 325 322 322 322 320 320 321 320 320 318 317 315 315 315 317 317 316 317 318 318 318 318 318 318 319 320 322 322 324 327
334 334 333 331 331 332 333 331 331 329 328 327 325 322 322 320 319 318 319 318 317 316 314 314 313 314 313 314 317 316 316 317 317 317 317 318 319 320 322 322 322 324 329

GFSMA_925_thetae_009.txt.gz
Theta_e
347 346 346 347 346 347 349 349 347 347 347 345 345 344 343 344 344 344 346 345 343 343 347 345 345 346 346 344 347 346 345 343 342 345 344 344 343 340 337 341 340 337 336
346 345 347 348 349 346 348 347 348 347 345 345 343 342 341 340 342 342 342 346 344 341 343 343 343 345 345 345 344 343 347 344 343 340 341 341 342 340 338 337 339 337 336
347 345 347 345 347 346 345 346 347 346 345 343 342 340 340 340 339 341 342 342 345 343 343 343 342 343 343 347 345 344 344 343 343 343 340 339 343 341 338 340 340 336 335
346 346 346 344 344 346 346 348 347 346 345 342 341 340 341 340 340 340 340 341 340 342 344 343 344 342 343 343 348 345 344 344 342 341 343 342 340 337 335 336 337 336 336
348 348 346 345 346 347 346 347 346 345 342 340 339 340 340 340 340 339 341 342 342 342 340 343 342 344 343 347 346 344 343 344 344 343 342 341 341 343 342 335 334 334 338
347 349 346 346 347 349 347 345 345 344 342 342 341 340 340 340 339 340 341 340 338 344 346 346 346 346 344 344 343 342 342 342 343 343 343 344 343 342 342 342 340 336 335
348 347 346 346 345 347 346 346 344 343 341 343 342 338 339 339 338 338 339 336 332 335 339 342 345 345 346 343 343 343 343 343 342 342 342 343 343 343 343 340 340 342 342
349 349 348 346 345 345 345 343 343 342 341 343 342 340 337 339 339 338 336 330 329 331 333 337 337 339 341 342 341 341 342 343 343 344 343 342 342 342 343 344 343 338 337
349 349 345 346 344 339 339 343 342 343 341 342 342 340 338 338 337 337 337 330 328 328 329 332 334 335 332 333 334 336 335 337 339 342 343 344 343 342 342 342 343 344 342
349 347 344 334 337 339 341 341 340 342 342 339 339 341 340 339 337 335 331 329 326 325 327 326 327 327 325 325 324 322 321 325 330 336 339 341 342 344 344 342 341 342 343
349 347 339 333 335 339 339 337 341 340 340 339 338 338 338 336 337 333 330 328 327 326 325 325 325 324 324 323 324 325 320 319 319 320 324 331 338 340 342 342 344 343 342
348 346 333 334 336 339 339 336 338 337 339 339 339 337 333 331 331 331 332 331 329 327 325 325 324 325 324 322 321 320 319 319 319 319 319 320 323 330 338 342 344 344 346
346 340 333 334 338 338 336 334 334 338 336 338 339 336 335 334 335 334 333 331 331 327 327 326 324 324 324 324 323 318 319 318 318 318 319 319 319 322 326 333 339 343 345
344 336 334 333 335 335 330 333 337 337 337 335 337 337 335 335 335 335 334 333 331 328 327 327 324 324 324 324 324 322 324 319 318 318 318 318 318 319 321 325 331 337 341
340 335 332 334 335 328 330 336 335 335 334 336 337 337 336 335 335 335 335 333 331 332 331 326 325 325 325 325 325 326 325 322 318 318 318 317 317 317 318 319 323 330 335
337 335 332 335 331 330 329 333 334 334 334 334 335 337 337 335 335 335 334 333 331 330 332 325 325 325 326 327 326 325 326 323 321 319 318 317 317 317 317 318 319 322 328
336 334 331 332 333 332 331 331 333 334 333 334 337 336 336 333 334 333 333 333 332 330 330 327 325 327 327 327 328 327 327 326 323 322 320 317 317 318 318 318 318 319 322
333 330 330 330 332 334 334 335 335 332 334 335 335 336 336 335 336 334 333 333 331 331 330 329 327 327 327 328 327 327 326 325 324 323 321 318 319 319 318 317 318 319 320
331 332 331 329 331 334 336 336 333 333 334 334 334 335 335 335 335 332 332 331 330 329 329 329 327 325 326 327 326 326 325 325 324 322 321 320 320 320 318 318 318 319 319
333 334 332 330 331 334 334 333 331 332 332 333 332 334 334 329 332 331 331 331 330 329 328 328 326 326 325 325 325 325 324 323 323 322 322 321 321 320 319 320 320 320 320
333 333 328 329 329 330 331 328 332 333 334 334 333 331 333 329 326 325 326 327 329 329 327 326 325 325 325 324 324 324 324 323 322 321 321 321 321 320 320 320 321 321 322
330 331 331 329 331 332 329 327 329 333 335 335 334 334 332 327 325 324 322 321 323 326 326 327 326 326 325 324 324 323 322 321 322 321 322 321 320 320 319 320 320 320 321
330 331 333 333 333 332 329 328 329 330 333 334 334 333 331 329 327 325 322 321 323 323 323 325 325 324 323 322 321 320 319 320 320 321 320 321 320 319 319 319 320 320 320
331 334 336 334 334 334 331 330 331 331 333 334 333 332 330 329 329 323 324 325 325 325 324 322 321 321 320 318 317 318 317 317 318 319 320 322 319 319 318 318 319 319 319
335 336 337 334 335 334 332 331 331 331 331 331 333 329 327 326 323 322 320 323 324 323 322 318 316 316 314 314 315 315 317 319 319 320 318 317 317 317 317 318 319 320 320
335 335 333 333 333 333 332 331 326 330 331 330 330 327 324 322 322 320 319 322 322 322 319 317 317 316 316 316 316 317 318 318 319 318 317 316 316 317 318 318 319 322 324

GFSMA_925_thetae_012.txt.gz
Theta_e
351 350 351 351 350 351 350 350 350 350 350 347 347 346 343 343 343 341 342 346 345 342 346 347 345 348 347 346 347 347 346 340 341 340 342 345 344 342 339 341 341 343 342
351 351 350 350 350 351 350 350 350 349 349 348 345 343 341 338 338 341 339 341 345 343 343 346 345 345 349 349 345 347 348 346 343 341 342 344 342 341 337 335 338 341 341
352 351 350 350 350 350 351 351 350 349 348 346 344 341 338 337 336 338 338 337 340 346 342 343 343 342 344 348 347 346 340 345 344 344 342 339 339 342 343 339 337 339 337
352 351 351 350 349 350 350 349 349 348 344 341 337 336 336 338 339 338 337 339 337 335 343 344 343 343 343 345 346 345 345 344 343 342 342 342 340 338 339 340 339 340 337
352 352 351 350 351 350 349 350 346 344 339 336 334 333 338 339 339 336 339 341 342 340 337 342 342 343 344 348 348 345 344 343 344 343 343 342 342 341 340 340 336 334 332
352 351 351 350 350 350 350 346 345 341 339 337 335 337 339 339 339 339 339 338 339 342 343 345 343 346 345 344 345 345 343 343 343 343 343 343 343 343 342 342 342 340 336
352 353 351 350 351 349 347 345 341 337 335 338 338 336 339 340 339 338 338 334 334 336 341 344 344 344 347 345 343 344 344 345 344 342 342 342 342 342 343 343 343 342 342
354 352 352 351 350 345 345 341 339 337 336 339 338 337 336 339 338 337 337 331 331 332 334 338 341 344 344 344 342 340 342 343 344 345 345 344 343 342 342 342 343 343 343
354 354 352 349 348 342 336 340 340 339 337 340 340 337 337 337 334 336 337 331 329 329 330 331 334 333 333 334 336 335 333 335 338 340 342 344 345 344 344 343 342 342 343
351 351 350 348 342 337 338 340 339 339 340 336 336 338 339 339 336 336 332 330 327 327 327 326 327 328 327 327 329 323 319 319 321 325 329 336 340 342 343 344 344 343 342
348 346 349 343 340 338 341 341 339 340 338 336 335 336 336 335 335 332 331 330 329 327 326 326 326 325 326 325 326 326 319 319 319 319 319 319 321 327 336 341 344 343 344
347 347 348 342 340 338 341 340 339 339 338 338 337 336 332 331 331 331 331 331 331 329 328 327 326 325 325 325 323 319 319 318 318 318 319 319 319 319 321 324 334 342 344
343 345 348 341 339 342 341 339 339 338 338 337 338 335 333 332 332 331 331 330 330 330 329 330 328 325 325 325 326 326 325 323 319 318 318 318 318 318 319 319 321 325 336
340 342 346 340 339 341 341 337 336 336 337 336 337 337 333 332 331 331 331 331 333 331 331 333 330 326 325 325 325 325 327 327 324 318 318 318 318 317 317 317 318 319 322
340 343 342 340 338 341 338 336 335 337 337 336 334 335 335 330 330 331 331 333 332 334 332 329 328 327 327 326 327 327 328 328 327 324 319 318 318 317 317 318 318 318 318
343 342 342 337 339 338 336 337 335 336 336 333 331 332 334 331 331 332 333 333 333 332 333 328 326 326 328 329 329 328 329 329 328 327 325 321 320 319 318 317 319 318 318
344 343 343 338 339 337 336 337 336 333 335 334 332 334 335 336 333 331 330 330 330 329 330 328 326 326 328 330 330 330 329 328 327 326 324 323 322 321 319 318 319 318 318
343 344 342 339 338 337 336 337 335 331 332 332 333 335 335 334 334 334 332 331 329 328 329 329 328 328 327 326 327 329 329 327 327 326 326 325 322 321 321 321 320 320 319
342 340 338 337 339 337 336 337 336 335 334 333 334 334 334 334 334 332 332 330 328 328 328 328 328 328 326 326 326 327 326 325 326 325 324 324 323 322 322 322 321 320 320
338 334 337 334 337 337 337 336 336 336 333 333 334 335 334 335 332 332 331 332 331 331 329 328 328 327 326 325 325 326 324 323 323 324 324 323 322 322 322 322 322 321 321
331 331 332 327 327 335 334 336 335 333 333 334 334 334 334 335 334 331 329 329 330 328 327 326 326 325 325 326 326 324 323 323 323 323 322 320 320 322 323 323 322 322 321
331 333 327 331 332 328 328 332 332 332 333 335 335 335 335 334 334 329 326 324 324 327 327 326 326 326 327 326 324 324 324 323 324 320 321 323 323 323 322 322 322 321 320
335 326 330 333 332 331 330 331 331 330 333 334 336 337 336 333 333 332 331 329 326 326 326 326 327 326 326 324 325 324 322 321 320 321 322 323 322 322 321 321 321 320 321
335 333 335 333 334 333 333 332 332 330 333 335 337 337 334 333 334 332 332 329 328 328 327 327 326 325 324 322 320 319 319 320 319 320 322 324 322 321 321 321 320 319 318
336 334 334 336 336 335 336 335 334 332 333 336 337 334 333 333 333 329 326 327 327 326 324 323 321 319 318 317 317 318 319 320 320 320 320 322 321 321 320 319 318 318 318
338 336 337 337 338 337 333 334 334 333 335 334 332 334 331 329 329 324 322 324 324 324 325 323 321 321 318 319 319 319 319 320 321 320 319 321 321 318 318 317 318 320 320

GFSMA_925_thetae_015.txt.gz
Theta_e
350 351 350 351 352 349 350 349 348 350 348 348 347 346 344 341 341 339 341 344 343 342 345 350 348 347 349 347 346 346 346 345 339 338 345 342 344 344 342 340 336 340 343
351 353 351 350 350 350 350 350 351 351 350 348 346 344 340 338 336 336 336 344 341 343 342 348 350 346 349 350 348 346 348 345 344 338 335 340 342 344 344 337 333 333 335
353 354 350 351 349 350 353 352 350 351 350 348 340 338 336 336 336 338 338 336 343 344 343 341 343 343 345 349 350 346 343 347 346 343 343 340 341 340 339 340 339 337 337
355 354 351 350 349 350 350 351 350 348 344 339 336 335 335 337 339 339 337 338 336 337 344 343 342 343 342 343 347 347 346 342 341 342 341 343 341 339 338 339 342 339 340
354 353 350 351 353 351 351 351 349 345 340 337 334 332 337 338 339 338 338 339 341 340 338 342 341 341 344 348 347 346 344 345 344 343 343 343 342 342 342 339 338 338 336
354 354 351 353 352 351 351 348 346 342 340 338 336 335 338 339 339 338 339 338 338 341 342 342 345 345 343 344 345 345 345 344 343 343 343 343 342 342 342 342 341 341 342
355 354 354 351 353 350 349 345 343 337 337 339 338 338 338 338 339 338 338 335 335 336 340 342 344 347 347 344 344 344 345 344 343 342 342 342 342 343 343 342 342 343 343
356 354 353 350 351 348 348 344 340 338 336 340 339 336 339 339 337 338 337 333 333 333 336 339 342 344 344 344 343 341 343 344 344 345 344 345 344 343 343 342 342 342 342
353 354 354 353 352 347 338 342 341 340 338 338 339 338 339 342 337 336 337 333 331 331 332 334 335 335 337 338 341 336 332 336 338 340 341 343 344 344 344 344 343 343 342
350 351 352 348 348 341 338 340 339 341 336 337 336 337 338 338 340 341 334 333 330 330 329 328 329 330 329 331 331 323 319 319 320 323 326 330 335 339 342 343 344 344 343
348 348 347 348 345 337 340 343 340 341 341 337 335 335 337 335 335 334 334 333 332 330 329 328 327 326 329 326 329 329 319 319 319 319 319 319 319 320 324 332 339 343 344
348 347 347 347 341 339 342 341 340 340 339 340 338 336 333 333 333 332 332 332 332 331 330 329 329 328 327 327 326 323 322 320 318 318 318 318 318 319 319 319 321 325 335
345 346 347 347 340 342 342 341 341 340 339 339 338 338 334 332 332 331 331 331 331 330 331 331 330 329 327 327 327 327 327 323 325 323 317 318 318 318 318 318 318 319 320
344 347 349 346 341 342 342 342 339 338 338 337 337 336 335 333 332 332 332 331 336 334 333 332 333 331 329 328 327 326 328 328 328 328 326 321 318 318 317 317 318 318 318
342 343 349 345 342 340 342 340 337 339 339 338 336 336 335 332 331 331 331 332 334 337 335 333 332 330 329 329 329 329 329 330 329 329 328 326 321 319 318 317 317 317 318
342 344 346 344 341 340 342 339 337 338 338 337 335 333 334 332 332 332 332 333 332 332 334 330 330 329 329 329 330 330 330 329 329 329 328 328 326 323 322 321 319 318 318
347 344 346 343 339 341 340 339 338 338 338 337 336 333 334 335 334 332 331 331 329 329 330 328 328 328 329 329 329 330 331 329 329 328 327 327 326 325 324 322 321 320 319
349 346 346 343 340 340 339 339 339 337 335 335 334 334 335 334 336 336 333 333 332 329 329 332 330 329 329 329 329 329 329 328 327 326 326 325 324 324 323 323 322 321 321
352 347 346 343 341 339 338 337 337 338 336 334 334 335 335 335 335 334 334 333 330 330 331 329 329 327 328 327 328 327 328 329 327 326 326 326 325 325 324 323 322 321 322
353 346 346 343 340 337 334 335 332 338 338 337 335 335 335 335 336 335 335 334 334 332 331 329 327 328 328 328 328 328 327 326 326 325 325 324 324 324 323 322 321 321 323
353 346 344 343 337 330 334 331 326 338 339 338 334 335 336 335 335 336 335 333 332 331 329 328 327 326 327 328 328 327 327 325 325 324 324 323 322 321 321 323 324 324 324
353 348 344 341 333 336 332 331 328 336 336 336 336 336 336 335 334 333 332 331 328 328 331 330 328 327 328 327 327 326 326 324 324 323 322 321 321 323 323 324 324 323 322
352 347 343 340 338 335 333 330 328 335 336 335 335 337 338 335 335 335 335 333 332 330 327 326 329 330 329 327 326 326 325 324 322 319 320 322 322 323 324 325 324 322 321
349 347 343 338 336 336 336 332 327 332 333 331 334 336 337 337 334 332 332 330 332 332 330 329 328 329 327 325 325 322 320 320 320 320 321 324 323 323 323 324 321 322 321
349 346 343 337 336 339 337 334 330 331 332 333 333 336 338 336 332 330 329 329 330 330 329 326 325 324 323 321 320 319 320 320 321 321 321 322 323 322 321 322 321 320 320
347 343 340 337 336 337 339 336 332 334 334 334 334 330 335 330 330 330 329 327 328 328 326 326 326 324 323 323 320 319 321 321 320 321 318 318 318 320 322 321 319 318 318

GFSMA_925_thetae_021.txt.gz
Theta_e
350 349 350 351 350 348 351 350 351 349 346 347 346 342 339 336 340 341 345 341 340 339 342 346 345 348 348 346 347 346 344 341 343 345 344 343 342 337 342 342 341 340 339
350 351 352 350 347 351 350 349 349 346 344 345 347 344 340 338 336 336 340 340 341 339 340 341 344 346 348 348 347 347 347 342 336 335 344 344 341 341 340 339 337 335 335
349 349 351 349 352 350 350 350 349 347 348 344 346 339 335 335 338 337 338 337 341 340 338 340 341 341 343 344 348 347 345 346 342 335 332 337 338 339 342 342 340 334 334
350 350 349 352 351 350 350 350 346 346 347 342 337 335 334 335 338 339 338 338 340 341 340 338 339 339 339 341 343 345 343 343 344 343 340 337 337 339 340 339 337 339 341
353 351 348 350 351 352 351 349 348 345 341 338 336 337 336 338 338 338 338 337 339 340 342 340 338 340 341 348 342 343 344 343 343 343 343 344 342 342 341 339 338 337 337
353 351 349 353 351 351 349 347 345 342 336 338 337 337 338 339 336 340 339 336 337 340 344 343 342 342 341 346 348 344 343 343 343 344 342 342 342 341 341 341 341 341 340
353 354 351 350 351 347 348 345 343 341 335 338 335 338 339 338 337 336 335 334 334 342 341 345 344 345 342 340 342 344 343 343 342 342 342 343 343 343 342 342 341 341 341
352 349 349 350 349 351 349 345 338 338 338 340 336 338 339 339 338 334 335 332 333 336 339 340 339 340 341 342 339 340 342 343 342 342 343 342 342 342 342 342 342 342 342
349 350 349 348 352 351 349 343 338 339 338 340 334 338 337 338 340 336 332 331 332 332 331 331 329 336 340 335 336 331 323 333 337 339 341 342 342 342 342 342 343 342 342
354 354 351 351 351 342 344 340 342 339 338 336 339 336 333 332 334 337 333 331 331 330 330 331 329 328 331 332 330 327 320 318 317 318 319 319 320 323 327 333 338 341 342
349 352 350 350 349 342 342 341 340 336 342 341 339 342 337 337 333 333 334 334 330 329 327 328 329 328 327 326 327 327 326 325 325 321 317 317 318 318 318 319 319 321 325
350 352 351 352 348 345 341 342 341 336 339 341 338 338 337 336 336 336 331 331 333 333 329 328 328 327 328 327 327 327 326 326 326 325 325 326 324 318 317 317 318 318 318
350 349 351 347 347 338 342 340 340 338 337 339 334 336 337 336 334 332 332 332 331 333 331 333 329 329 328 328 328 327 327 327 326 328 328 327 327 326 325 323 319 317 317
350 348 348 347 347 338 345 341 342 340 340 335 333 336 335 335 333 334 332 332 327 331 332 330 331 332 329 328 328 328 328 327 328 329 328 328 327 326 326 326 323 319 318
344 348 347 347 347 340 341 342 341 339 340 338 336 333 332 331 333 333 334 332 331 328 327 331 331 332 332 330 328 328 328 329 329 330 329 329 328 328 328 327 326 325 321
348 349 347 347 346 342 337 343 343 338 338 339 337 337 335 333 336 332 333 333 331 330 329 332 329 327 329 329 329 328 329 329 329 328 326 328 329 329 329 328 327 326 325
346 348 348 347 347 343 340 341 343 339 339 338 340 337 337 335 335 333 333 332 332 333 334 332 330 329 332 330 330 330 328 328 328 328 327 328 329 328 328 327 326 325 324
352 347 348 347 347 345 340 343 343 339 338 341 337 338 336 336 334 333 332 332 334 333 332 332 332 331 331 328 327 327 326 327 327 331 330 328 327 325 325 325 325 325 325
352 350 348 347 348 346 340 339 342 341 338 339 338 338 334 334 332 333 335 335 336 334 333 333 333 332 331 329 329 329 328 329 328 327 328 326 326 325 325 324 324 324 324
357 352 349 348 347 346 342 341 341 341 337 339 339 340 338 336 333 335 336 337 335 334 334 333 333 332 331 330 330 328 328 327 327 327 327 326 326 323 323 322 322 321 321
361 357 352 349 347 346 343 341 340 340 336 333 337 338 336 334 333 335 336 336 335 334 333 332 332 330 329 329 330 329 329 328 328 326 325 324 324 323 322 317 314 315 318
361 360 355 351 350 347 345 343 341 341 337 337 337 337 336 335 334 336 336 334 334 332 331 331 330 328 328 329 329 329 328 327 326 323 323 320 318 319 319 320 320 320 320
362 363 358 354 351 350 347 344 342 340 339 336 336 337 339 337 337 328 333 334 333 332 328 330 329 328 324 324 329 329 327 326 326 322 319 319 320 321 320 320 321 322 322
363 363 361 357 352 350 349 345 342 340 338 337 338 340 339 337 331 330 333 333 332 329 328 330 329 324 328 329 329 328 327 326 323 321 320 321 321 321 320 319 316 314 314
363 363 362 358 353 350 349 345 341 339 337 336 338 338 338 335 327 333 332 330 331 329 330 330 328 330 328 326 328 329 326 322 320 321 322 320 321 318 315 312 312 314 316
364 363 361 359 355 350 348 344 339 335 332 332 335 334 334 332 325 331 330 329 331 330 330 328 327 328 327 326 323 323 322 322 321 320 321 320 320 315 313 313 315 317 319

GFSMA_925_thetae_024.txt.gz
Theta_e
350 348 349 350 350 348 350 348 349 349 346 345 342 340 339 340 343 344 341 339 339 340 342 343 345 346 346 346 346 345 344 342 341 340 345 343 340 338 339 339 339 339 337
349 348 351 350 350 351 350 349 348 346 344 345 348 340 339 339 341 341 342 341 339 338 339 341 343 344 348 347 347 346 346 344 341 344 344 341 340 337 338 340 341 339 335
350 350 349 349 350 350 350 350 349 345 348 343 339 337 336 335 337 337 339 339 339 339 336 340 341 341 343 344 346 347 346 344 340 336 333 344 342 338 340 341 340 335 332
348 349 348 349 351 350 350 349 347 345 342 339 337 335 335 334 337 337 337 338 340 341 338 336 339 339 339 341 342 343 341 345 345 343 337 331 333 333 334 339 340 338 338
350 351 349 349 349 351 349 349 347 344 339 336 336 336 336 339 339 338 337 336 339 340 342 338 338 338 340 346 341 342 342 342 343 343 342 341 338 337 338 338 337 336 336
352 352 347 349 352 351 350 347 345 342 336 337 337 336 338 337 338 338 338 338 340 342 344 341 339 341 340 342 344 343 342 342 343 342 342 341 342 342 341 340 340 340 340
351 352 350 351 351 350 347 345 344 341 335 338 335 334 339 338 338 339 334 337 341 342 343 344 344 345 342 340 339 342 342 342 342 342 342 343 342 342 342 342 341 341 340
351 352 352 350 349 350 350 346 342 334 338 339 335 337 335 338 336 334 333 337 339 339 340 339 334 336 340 340 338 339 341 341 341 341 341 341 341 341 341 341 342 342 342
352 353 351 349 349 350 349 346 334 337 338 339 335 338 334 336 339 333 331 332 333 333 334 332 328 334 340 334 331 325 320 331 336 338 339 340 341 341 341 341 341 342 342
353 350 350 346 347 351 349 346 337 337 337 338 335 334 333 333 333 337 332 331 331 331 331 332 328 331 330 330 328 326 320 321 319 317 317 318 318 319 320 323 327 332 338
353 351 352 350 350 348 347 340 340 338 336 336 339 336 336 336 330 331 331 332 330 329 329 329 330 327 328 328 327 326 325 326 325 323 321 320 318 317 317 317 318 318 319
353 353 351 350 351 343 341 339 338 336 338 337 338 339 334 334 334 334 328 329 331 333 329 327 330 328 327 327 327 327 327 326 326 325 327 327 326 325 324 321 319 317 317
355 352 352 350 350 346 341 340 340 339 336 338 337 336 335 334 333 330 329 330 329 332 332 330 330 328 328 327 327 327 327 327 327 327 328 328 327 326 326 325 324 323 320
354 349 352 351 350 347 343 340 340 338 336 337 338 336 335 334 333 333 331 330 325 328 332 330 331 331 329 329 328 327 327 327 327 328 328 329 328 328 328 327 326 326 324
352 350 350 351 349 346 341 339 341 340 338 336 331 337 335 335 333 333 332 332 329 327 324 329 331 332 332 329 328 328 327 328 329 329 329 329 328 327 329 329 329 328 327
350 349 348 348 347 346 342 340 341 340 338 336 336 336 334 332 332 333 333 332 330 329 324 330 331 328 328 329 329 329 328 327 328 329 330 328 327 327 328 329 329 328 328
350 347 346 347 347 346 343 337 339 341 341 335 339 339 336 335 334 335 333 333 333 333 332 333 332 330 330 330 330 330 330 329 328 329 328 329 329 329 329 327 325 325 324
350 346 346 347 347 346 345 336 338 342 341 337 336 339 339 336 336 336 333 333 332 331 332 330 331 331 331 331 329 328 329 329 327 328 328 330 329 327 326 325 324 324 323
354 351 348 348 348 347 346 343 337 338 341 339 337 338 337 338 336 337 334 333 333 335 334 333 332 331 331 331 330 329 329 328 328 326 326 326 327 326 325 323 323 322 322
356 354 351 348 348 347 346 345 341 339 341 340 336 338 339 338 336 334 333 334 335 333 333 332 332 331 331 330 330 329 329 328 327 325 326 327 325 323 321 319 318 318 316
357 355 353 351 349 347 347 346 343 340 341 341 338 337 339 338 338 337 333 334 334 329 332 331 331 329 329 330 328 329 329 328 326 324 323 322 321 317 318 318 319 319 320
357 357 355 353 351 349 347 346 345 342 340 340 340 337 336 336 337 336 333 335 329 331 333 330 329 329 328 328 327 326 328 328 325 324 324 324 320 318 319 320 320 320 321
357 359 359 355 352 351 349 347 346 343 341 341 340 336 333 335 336 336 336 335 327 333 332 330 328 328 328 329 325 328 329 328 327 325 325 323 321 321 319 320 320 319 314
359 358 358 358 356 354 352 349 347 344 342 341 340 338 333 334 338 338 335 330 330 332 331 329 327 327 329 328 328 329 329 328 327 326 324 320 321 321 320 320 318 311 311
361 360 360 358 356 355 356 353 347 343 341 341 340 339 334 336 337 336 335 328 330 332 330 330 330 330 329 328 327 326 326 326 322 322 322 320 320 317 316 318 313 311 315
361 361 361 360 359 359 358 354 349 345 341 340 338 337 336 338 338 336 328 330 332 330 330 330 329 327 327 326 325 322 321 323 322 319 315 318 317 318 315 313 311 312 316

GFSMA_925_thetae_027.txt.gz
Theta_e
350 346 348 348 347 346 348 347 346 348 344 343 343 340 337 336 340 343 340 340 339 340 344 343 345 346 347 346 347 345 345 343 342 342 341 343 341 334 334 338 337 335 336
350 347 348 349 348 348 347 348 348 346 344 343 346 344 342 339 337 341 342 340 337 337 339 341 342 345 346 347 346 346 344 344 340 336 340 344 342 338 333 337 341 340 340
349 348 348 349 350 346 349 349 348 345 347 340 339 337 336 338 336 340 340 340 337 338 336 340 340 342 342 345 347 345 345 343 340 337 342 341 339 340 339 336 338 339 334
350 349 348 349 349 350 349 349 347 344 341 338 337 336 334 335 336 337 338 339 340 340 337 336 339 339 339 341 342 344 344 342 342 341 336 332 341 342 338 336 340 339 339
350 349 349 349 350 349 350 349 346 343 338 334 336 336 336 337 337 337 337 337 337 340 340 338 336 337 339 345 345 342 342 340 338 342 342 339 334 331 331 334 337 337 336
349 350 350 348 349 350 350 349 345 342 335 336 337 336 338 337 338 338 338 338 338 341 342 339 339 339 339 343 346 343 341 341 342 342 341 341 341 340 340 339 339 339 338
350 351 351 347 349 350 349 346 345 341 335 337 334 335 338 337 339 338 336 339 341 343 343 341 341 342 343 340 339 340 342 341 341 341 341 342 341 341 341 341 341 340 340
351 351 352 350 350 350 346 345 343 339 335 339 335 335 334 336 336 333 336 341 339 338 339 339 337 340 341 340 338 338 341 340 340 340 340 341 341 341 341 341 341 341 341
350 350 352 351 350 350 349 348 344 330 338 336 334 336 333 334 336 332 339 339 338 337 337 332 329 335 339 334 328 322 322 333 337 338 338 339 339 339 339 339 340 341 341
351 351 352 352 350 349 349 348 344 333 337 337 335 335 335 336 332 333 331 336 337 336 333 331 329 330 330 329 326 321 323 322 321 319 317 317 317 317 318 319 320 322 328
351 353 352 351 347 347 350 347 342 335 338 337 336 335 335 333 331 331 329 330 330 330 331 331 330 328 328 327 326 326 324 326 324 325 326 326 325 323 318 316 317 317 317
353 353 353 350 348 348 349 347 343 338 337 336 337 337 334 333 333 331 327 328 329 331 329 329 328 329 327 327 327 326 326 326 326 326 327 327 326 326 325 324 322 322 321
353 354 352 352 350 348 346 343 338 337 336 336 336 336 334 333 333 331 328 328 327 331 331 330 327 328 328 327 327 327 327 326 326 327 327 328 328 327 327 326 326 326 325
353 352 352 352 350 349 346 342 339 338 337 336 337 336 335 334 333 331 330 329 325 326 330 329 329 331 330 328 328 327 327 327 326 327 328 328 328 328 328 328 328 328 328
352 351 353 351 350 350 347 344 340 339 339 336 336 337 336 335 333 332 332 331 328 325 325 328 330 331 332 332 330 328 328 327 327 327 328 328 329 328 327 327 328 329 329
352 351 353 350 350 350 348 345 341 338 339 338 335 333 336 335 333 333 332 332 330 328 324 328 331 328 327 328 329 329 328 328 328 328 328 328 329 329 328 328 329 328 325
353 353 352 349 350 351 348 345 341 338 339 338 337 335 335 335 333 332 333 333 333 330 328 331 331 330 330 329 329 329 329 328 329 329 328 329 329 330 330 327 325 325 325
353 353 352 350 349 350 347 345 342 338 339 339 337 336 337 338 336 335 335 333 333 331 332 330 330 331 331 330 330 330 330 329 329 328 328 326 325 327 327 326 325 323 323
355 352 351 350 348 347 346 346 344 340 337 339 339 333 335 338 339 336 336 336 333 333 335 333 332 332 331 330 330 330 329 329 328 327 327 324 326 327 326 324 322 320 318
354 354 352 350 347 346 346 346 345 343 337 338 337 336 334 336 337 337 336 335 333 334 334 331 331 330 329 329 328 328 328 328 329 327 325 323 322 320 318 317 317 318 319
353 354 355 351 347 347 347 347 346 345 342 339 338 339 337 336 337 338 337 335 333 335 331 330 331 329 327 327 328 328 328 326 327 328 323 322 323 322 318 317 318 319 319
353 353 354 355 351 349 347 347 346 345 345 343 340 340 339 336 338 338 337 338 335 334 331 330 331 329 331 328 327 328 327 325 326 327 324 324 325 323 321 320 319 318 319
354 353 352 353 352 352 351 350 348 346 345 344 341 340 339 339 337 335 335 337 335 335 330 329 332 331 329 326 327 327 326 326 327 328 326 325 325 322 321 320 318 316 316
355 355 354 353 352 353 353 352 350 346 344 342 342 341 341 339 337 333 334 336 336 335 330 330 331 326 326 327 327 328 327 327 326 326 325 321 321 318 314 313 313 313 314
356 355 354 353 354 354 354 355 352 346 342 342 342 341 340 340 338 334 337 337 335 332 330 331 330 330 330 329 328 327 325 325 323 322 321 320 317 316 315 311 309 309 310
359 357 355 355 355 355 355 356 354 346 343 343 343 343 342 340 338 335 337 335 333 330 327 330 329 329 328 326 326 324 321 321 320 318 314 316 316 315 313 310 309 310 312

GFSMA_925_thetae_033.txt.gz
Theta_e
348 346 347 346 346 345 346 344 348 346 345 347 343 342 336 341 344 344 342 339 338 340 342 344 347 345 346 342 344 337 341 334 338 339 340 341 339 340 340 334 337 338 333
348 348 346 347 347 348 350 345 347 345 345 343 342 344 343 343 342 344 344 342 336 337 339 341 342 347 346 345 344 345 345 344 342 342 341 338 342 340 335 332 335 339 339
347 347 348 349 349 348 346 347 347 346 343 339 339 335 337 336 340 344 345 343 341 338 337 340 340 341 344 348 346 345 343 341 341 334 341 336 342 341 339 337 332 335 338
347 347 349 351 349 348 344 347 348 348 344 337 335 338 333 333 335 340 343 344 344 343 339 336 339 339 339 341 342 347 342 341 341 341 338 335 340 340 339 339 337 336 338
346 347 350 351 348 350 347 350 350 346 342 339 340 338 339 336 338 340 342 344 344 345 343 338 336 337 339 346 344 340 341 341 340 337 336 339 339 335 333 339 338 333 334
348 348 350 349 349 352 350 350 348 345 339 340 338 340 340 341 340 341 341 340 343 345 345 344 343 342 339 339 343 344 340 340 340 340 339 339 340 341 340 336 335 336 337
349 349 352 349 350 350 352 350 348 346 339 338 338 341 340 340 339 339 340 343 345 346 346 345 344 340 344 339 338 338 340 341 340 340 340 341 341 340 340 340 340 340 340
349 349 350 351 352 352 348 349 345 345 342 339 339 341 341 340 339 338 338 344 345 343 342 343 342 343 344 343 340 336 339 340 340 339 340 340 340 340 341 339 340 339 340
349 349 350 351 351 351 352 349 346 344 340 341 336 339 340 340 341 338 338 343 343 340 340 337 338 341 340 334 328 326 325 328 327 323 320 321 321 320 321 322 324 326 329
350 349 349 350 350 353 352 350 347 345 336 340 338 337 337 342 340 340 338 340 341 340 339 337 336 337 332 331 322 324 323 322 324 325 324 324 324 322 319 318 317 317 318
349 350 350 350 351 352 352 351 348 346 341 339 339 338 338 337 339 339 339 337 338 337 337 336 335 337 334 331 328 326 324 325 326 327 327 326 326 325 325 324 324 324 323
352 350 352 351 350 352 352 351 347 347 342 338 340 339 337 337 337 339 339 338 337 335 334 334 334 334 336 335 329 326 326 326 326 326 326 327 327 327 327 327 327 327 328
352 354 351 351 352 351 352 349 346 348 344 340 336 340 339 337 336 336 336 337 336 335 335 335 333 333 332 335 336 328 327 326 326 326 326 327 327 327 328 327 327 328 328
351 354 350 350 351 351 351 349 347 347 344 341 336 337 340 339 336 336 335 335 336 335 334 335 334 333 332 332 333 330 332 327 327 327 326 326 327 327 328 328 328 328 327
352 353 351 350 350 352 352 350 348 347 344 339 338 336 338 338 337 335 333 334 334 335 334 335 333 331 334 334 332 331 334 333 328 327 327 327 327 327 327 328 328 328 328
351 352 349 350 349 352 352 350 348 346 344 341 340 340 338 338 338 337 336 334 333 334 335 333 333 333 332 329 330 329 330 329 328 328 328 328 328 328 328 327 328 327 329
350 351 350 350 350 352 352 351 349 347 344 342 340 339 340 340 338 337 337 336 335 333 334 334 333 333 328 330 332 329 329 330 332 329 329 328 328 328 327 327 327 328 326
350 351 351 351 353 353 351 351 351 347 346 345 343 341 340 338 339 338 336 337 335 335 334 337 336 335 331 333 331 331 333 331 330 331 328 328 327 327 326 325 326 326 325
351 352 353 352 353 354 352 350 351 349 347 346 344 342 341 340 338 336 337 336 335 336 336 335 335 335 335 334 334 331 330 331 328 328 327 328 327 325 324 324 321 318 317
352 351 351 352 352 353 353 351 351 351 349 347 346 343 341 341 339 339 339 338 337 337 337 336 335 336 336 335 333 332 331 331 331 327 323 324 328 324 322 321 321 318 317
352 352 351 352 352 353 352 351 352 351 349 348 346 344 342 340 338 337 337 340 339 338 338 337 337 336 335 334 332 329 332 331 330 329 328 329 328 326 325 326 325 322 321
353 353 352 352 352 351 351 350 351 350 349 349 347 346 344 341 337 337 334 336 337 339 339 338 336 335 335 335 331 332 331 329 331 331 330 328 329 327 326 325 323 320 318
354 354 353 352 352 351 349 349 350 350 349 348 347 347 346 344 340 338 337 335 336 337 337 340 338 337 336 334 332 333 331 332 331 331 329 328 327 327 324 322 318 314 313
355 355 354 353 352 352 350 347 350 350 349 348 347 347 347 345 343 340 341 339 338 338 337 336 338 337 334 335 332 332 332 332 331 330 329 327 323 323 320 319 317 314 310
355 356 355 354 353 353 351 349 349 348 349 349 348 347 347 346 344 343 340 342 340 340 337 335 336 336 332 330 331 332 331 330 328 326 326 324 320 320 317 317 314 311 307
355 355 355 355 354 353 352 350 349 348 349 350 349 348 346 346 345 344 341 342 342 340 338 335 335 333 330 330 330 329 330 327 324 323 323 319 318 317 316 311 312 311 309

GFSMA_925_thetae_036.txt.gz
Theta_e
353 353 352 351 351 350 347 348 348 346 347 344 341 340 337 337 339 339 341 336 339 339 342 344 347 343 346 345 345 341 340 332 340 341 344 344 341 342 341 334 334 339 334
354 352 352 350 350 351 351 345 347 346 347 347 342 339 337 338 341 340 339 341 336 337 339 342 343 347 347 346 342 344 345 340 338 344 340 340 342 340 335 333 335 338 339
353 350 351 351 350 350 350 349 346 348 346 343 342 338 336 338 339 341 339 340 342 337 336 339 342 341 344 345 347 341 345 343 342 336 340 341 335 339 341 340 337 339 339
354 352 353 352 353 350 349 349 351 348 345 342 338 340 336 337 338 339 338 340 340 342 341 336 338 339 341 343 345 346 345 340 341 341 339 335 334 342 341 339 339 338 337
353 355 353 352 354 353 350 350 350 347 342 341 340 339 340 338 339 337 339 340 342 341 342 338 336 337 340 344 342 340 343 343 341 340 338 336 339 337 334 333 338 338 332
352 355 353 352 353 353 351 351 351 347 341 339 334 337 340 338 340 339 337 338 341 344 343 343 343 343 339 341 345 346 341 340 340 340 339 338 339 340 340 339 337 336 338
355 357 354 353 352 352 353 353 349 349 342 339 338 338 339 339 340 338 338 339 338 340 340 341 344 341 344 338 338 338 340 341 341 341 340 340 341 341 340 340 340 340 340
357 358 356 355 355 354 356 354 352 346 343 339 339 340 341 337 337 338 341 338 339 336 337 337 338 341 341 343 339 335 338 340 340 339 340 340 341 341 341 340 338 337 339
357 359 354 352 356 353 353 355 353 350 343 339 341 341 339 343 336 338 341 338 339 338 336 336 337 340 338 331 331 326 330 331 326 320 320 320 319 319 320 322 322 323 323
357 357 358 358 357 355 355 355 353 351 348 339 339 338 342 344 339 340 338 341 339 338 338 336 336 336 336 330 330 327 320 322 324 325 325 325 324 323 321 319 318 318 318
357 356 358 359 358 356 356 357 355 353 348 341 339 339 339 338 341 340 340 339 340 338 338 337 336 336 336 334 331 325 325 326 327 327 327 326 326 326 326 326 326 326 326
354 356 356 358 359 356 357 357 357 354 351 346 339 340 337 337 337 339 339 339 339 338 337 336 337 335 336 336 334 329 325 325 326 326 327 327 327 327 327 327 327 329 330
351 352 357 357 357 359 358 358 357 353 353 349 345 340 339 338 337 335 337 337 337 337 337 336 336 335 335 336 335 332 328 326 326 326 326 326 327 327 327 327 327 327 327
351 352 355 356 358 358 358 359 356 354 351 351 348 341 340 339 338 336 335 335 336 336 335 336 335 334 334 335 335 336 333 331 327 326 326 326 326 326 327 327 327 328 328
353 354 354 358 358 357 359 358 355 353 350 351 347 344 340 339 338 337 336 335 335 338 337 337 333 335 334 335 336 336 337 336 334 329 327 327 327 327 327 327 327 327 328
355 353 356 357 357 357 358 358 355 354 351 349 344 342 342 337 339 338 337 336 335 334 336 334 335 335 335 335 336 335 337 337 333 329 328 328 328 328 328 328 327 327 327
357 356 356 357 356 356 358 359 356 354 353 350 346 343 345 341 338 337 338 337 336 335 335 334 335 337 338 337 335 335 336 334 334 333 329 328 329 328 328 328 327 326 326
357 358 357 358 357 356 357 359 357 353 353 352 349 346 344 343 343 339 338 337 336 337 336 336 336 337 339 337 338 339 335 333 333 332 332 330 328 328 327 327 326 324 324
359 357 358 359 358 356 356 358 357 356 354 353 351 348 346 343 343 337 338 337 338 338 339 337 336 337 335 337 338 338 337 335 334 332 330 328 327 327 325 324 323 321 320
360 359 359 360 358 357 356 356 357 356 356 354 353 350 347 343 342 342 339 340 339 338 338 338 336 335 337 336 336 335 335 336 333 333 331 328 327 327 327 322 321 321 324
360 359 359 359 359 357 354 355 356 355 356 356 354 351 349 347 343 342 340 340 340 340 337 338 338 336 336 336 336 335 334 333 334 335 332 332 330 331 328 327 327 326 325
360 360 360 360 360 358 354 351 355 355 355 356 355 352 350 348 345 342 340 339 340 342 341 337 338 337 337 336 335 335 333 334 333 333 334 332 330 329 329 328 326 324 321
361 361 361 361 360 359 355 351 350 354 355 356 356 354 352 350 347 346 341 337 337 339 339 340 340 338 338 338 337 336 335 334 333 333 334 331 329 328 326 325 322 320 318
361 362 361 361 361 360 358 354 350 352 355 355 356 355 354 352 350 348 347 342 339 339 338 338 340 340 340 339 338 337 335 334 334 333 332 331 327 324 323 322 320 317 314
361 361 360 362 361 360 358 356 353 351 352 355 356 355 355 354 352 349 348 347 344 340 340 338 339 339 340 338 337 335 334 333 332 331 330 328 324 321 321 320 317 315 312
360 360 360 361 361 361 359 356 354 352 352 352 355 356 354 354 353 351 347 349 347 345 344 341 339 338 338 336 332 332 333 332 331 328 327 325 320 320 320 318 315 314 313